Flag for India Weather past 2 weeks in Navi Mumbai, Maharashtra, India

88 °F

Partly sunny.

Feels Like: 94 °F
Forecast: 74 / 95 °F
Wind: 9 mph from West

Location: Mumbai / Santacruz

Current Time: Nov 25, 2015 at 1:57:04 PM

Latest Report: Nov 25, 2015 at 1:30 PM

Visibility: 2 mi

Pressure: 29.83 "Hg

Humidity: 59%

Dew point: 72 °F

Location of Navi MumbaiLocation

Historic Weather in Navi Mumbai — Graph


Navi Mumbai temperature yesterday

Maximum temperature yesterday: 93 °F (at 2:30 PM)
Minimum temperature yesterday: 79 °F (at 3:00 AM)
Average temperature yesterday: 85 °F

Past Weeks' High & Low Weather Summary

High99 °F (Nov 20, 3:00 PM)84% (Nov 22, 10:00 PM)29.98 "Hg (Nov 22, 10:00 PM)
Low75 °F (Nov 18, 6:30 AM)19% (Nov 19, 3:30 PM)29.74 "Hg (Nov 15, 3:30 PM)
Average86 °F50%29.85 "Hg
* Reported Nov 10 12:40 PM — Nov 25 12:30 PM, Navi Mumbai, Weather by CustomWeather, © 2015

Note: Actual official high and low records may vary slightly from our data, if they occured in-between our weather recording intervals... More about our weather records


Navi Mumbai weather history for previous 24 hours

Time TempWeatherWind HumidityBarometerVisibility
12:30 PM
Wed, Nov 25
91 °FScattered clouds.7 mph46%29.86 "Hg2 mi
11:30 AM91 °FScattered clouds.6 mph46%29.89 "Hg2 mi
11:00 AM91 °FScattered clouds.6 mph49%29.89 "Hg2 mi
10:30 AM90 °FScattered clouds.7 mph52%29.92 "Hg2 mi
10:00 AM90 °FScattered clouds.3 mph55%29.92 "Hg2 mi
9:30 AM88 °FPartly sunny.No wind62%29.92 "Hg2 mi
9:00 AM86 °FPartly sunny.3 mph62%29.92 "Hg2 mi
8:30 AM82 °FPartly sunny.5 mph70%29.89 "Hg2 mi
8:00 AM82 °FPartly sunny.3 mph70%29.89 "Hg2 mi
7:30 AM82 °FPartly sunny.3 mph74%29.89 "Hg2 mi
7:00 AM82 °FPassing clouds.3 mph74%29.86 "Hg2 mi
6:30 AM82 °FPassing clouds.5 mph74%29.86 "Hg2 mi
5:30 AM82 °FPassing clouds.No wind70%29.83 "Hg2 mi
5:00 AM82 °FPassing clouds.3 mph70%29.83 "Hg2 mi
4:30 AM82 °FPassing clouds.3 mph74%29.83 "Hg2 mi
3:30 AM82 °FPassing clouds.No wind74%29.83 "Hg2 mi
3:00 AM82 °FPassing clouds.3 mph74%29.83 "Hg2 mi
2:30 AM82 °FPassing clouds.No wind74%29.86 "Hg2 mi
2:00 AM84 °FPassing clouds.No wind70%29.86 "Hg2 mi
1:30 AM82 °FPassing clouds.No wind74%29.86 "Hg2 mi
1:00 AM84 °FPassing clouds.No wind70%29.89 "Hg2 mi
12:30 AM84 °FPassing clouds.3 mph70%29.89 "Hg2 mi
12:00 AM84 °FPassing clouds.No wind70%29.89 "Hg2 mi
11:30 PM
Tue, Nov 24
84 °FPassing clouds.5 mph74%29.89 "Hg2 mi
11:00 PM84 °FPassing clouds.No wind74%29.92 "Hg2 mi
10:30 PM84 °FPassing clouds.3 mph74%29.92 "Hg2 mi
10:00 PM86 °FPassing clouds.3 mph66%29.89 "Hg2 mi
9:30 PM86 °FPassing clouds.3 mph66%29.89 "Hg2 mi
9:00 PM86 °FPassing clouds.3 mph66%29.89 "Hg2 mi
8:30 PM86 °FPassing clouds.3 mph66%29.89 "Hg2 mi
8:00 PM86 °FPassing clouds.5 mph66%29.89 "Hg2 mi
7:30 PM86 °FPassing clouds.6 mph66%29.89 "Hg2 mi
7:00 PM86 °FPassing clouds.6 mph66%29.86 "Hg2 mi
6:30 PM86 °FPassing clouds.6 mph66%29.86 "Hg2 mi
6:00 PM86 °FPartly sunny.8 mph66%29.83 "Hg2 mi
5:30 PM88 °FPartly sunny.10 mph59%29.83 "Hg2 mi
5:00 PM88 °FScattered clouds.9 mph59%29.83 "Hg2 mi
4:30 PM88 °FScattered clouds.9 mph59%29.80 "Hg2 mi
3:30 PM93 °FScattered clouds.9 mph44%29.83 "Hg2 mi
3:00 PM93 °FScattered clouds.8 mph39%29.83 "Hg2 mi
2:30 PM93 °FScattered clouds.9 mph41%29.83 "Hg2 mi
2:00 PM91 °FScattered clouds.5 mph46%29.83 "Hg2 mi
1:30 PM91 °FScattered clouds.7 mph46%29.86 "Hg2 mi
1:00 PM91 °FScattered clouds.6 mph46%29.86 "Hg2 mi
Weather by CustomWeather, © 2015

See weather overviewHow to use our weather pages